Location: Brunn
(48.6833°N, 15.5167°E)
Time: 08:48:55
(UTC+00:00)

Daily predictions for brighter satellites

Satellite Brightness Start Highest point End
(mag) Time Altitude Azimuth Time Altitude Azimuth Time Altitude Azimuth
Cosmos 1703 4.4 16:17:07 10° SE 16:20:19 24° E 16:23:32 10° NE
Cosmos 2237 Rocket 3.0 16:15:25 10° NW 16:20:57 59° WSW 16:26:27 10° S
USA 32 4.2 16:15:58 10° SSE 16:21:03 55° E 16:26:10 10° NNE
Envisat 3.0 16:16:43 10° SSE 16:21:42 60° ENE 16:26:44 10° N
Meteor 2-1 Rocket 4.3 16:16:19 10° NNW 16:21:52 84° W 16:27:27 10° S
ATLAS CENTAUR R/B 4.1 16:17:38 10° W 16:23:14 62° NNW 16:39:11 10° ENE
Cosmos 1356 Rocket 4.4 16:20:45 10° NNE 16:24:06 24° ENE 16:27:27 10° ESE
USA 267 3.4 16:17:37 10° ENE 16:24:10 72° SE 16:30:41 10° SW
Cosmos 724 4.5 16:19:31 10° SW 16:25:29 81° NW 16:31:22 10° NE
Cosmos 2221 4.0 16:23:15 10° NNE 16:25:51 16° ENE 16:28:27 10° ESE
Cosmos 1242 Rocket 4.4 16:23:24 10° SW 16:26:37 32° WNW 16:29:54 10° N
Cosmos 1455 2.5 16:23:36 10° N 16:27:16 44° ENE 16:30:54 10° SSE
Cosmos 962 Rocket 4.5 16:21:36 10° S 16:27:41 71° E 16:33:52 10° NNE
CORIOLIS 4.2 16:24:21 10° SSE 16:29:43 89° W 16:35:06 10° NNW
Okean O Rocket 3.8 16:27:44 10° SSW 16:31:41 31° W 16:35:39 10° NNW
Cosmos-2242 2.9 16:28:29 10° N 16:32:48 68° E 16:37:03 10° SSE
Starlink T 3.8 16:33:26 10° WNW 16:36:26 37° N 16:39:04 13° ENE
Starlink N 3.7 16:35:27 10° WNW 16:38:27 37° N 16:41:00 13° ENE
Starlink Q 3.7 16:37:42 10° WNW 16:40:43 37° N 16:43:10 14° ENE
Meteor 2-10 Rocket 3.4 16:36:14 10° N 16:41:31 70° ENE 16:46:34 10° SSE
Okean-O 2.6 16:37:24 10° SSE 16:41:50 74° ENE 16:46:16 10° N
Starlink P 3.7 16:39:48 10° WNW 16:42:49 37° N 16:45:11 15° ENE
SKYMED 2 4.1 16:39:08 10° NNE 16:43:13 39° E 16:47:18 10° SSE
ISS -3.8 16:40:13 10° WSW 16:43:37 87° NNW 16:46:23 15° ENE
Starlink U 3.7 16:41:52 10° WNW 16:44:54 38° N 16:47:11 15° ENE
Starlink B 3.7 16:43:59 10° WNW 16:47:01 38° N 16:49:12 16° ENE
SL-16 R/B 2.2 16:41:24 10° NNW 16:47:08 90° SW 16:52:48 10° SSE
CZ-2D R/B 4.2 16:44:09 10° ESE 16:47:21 26° ENE 16:50:37 10° N
Cosmos 1727 Rocket 4.1 16:44:43 10° N 16:50:45 50° ENE 16:56:43 10° SSE
Cosmos 1939 Rocket 3.6 16:47:46 10° SE 16:51:13 29° ENE 16:54:43 10° N
SL-8 Rocket 4.0 16:49:05 10° S 16:55:21 76° E 17:01:38 10° NNE
Cosmos 44 3.1 16:51:33 10° SW 16:56:07 85° NW 17:00:20 11° NE
Cosmos 2082 3.7 16:50:47 10° SSW 16:56:22 73° ESE 17:02:01 10° NNE
Starlink AS 3.5 16:53:55 10° WNW 16:56:42 37° N 16:58:10 21° ENE
Starlink BA 3.5 16:54:07 10° WNW 16:56:54 37° N 16:58:22 21° ENE
Starlink AU 3.5 16:54:21 10° WNW 16:57:07 37° N 16:58:34 22° ENE
Starlink AT 3.5 16:54:35 10° WNW 16:57:21 37° N 16:58:48 22° ENE
Starlink BB 3.5 16:54:48 10° WNW 16:57:35 37° N 16:59:01 22° ENE
Cosmos 2219 4.0 16:52:08 10° SW 16:57:36 50° NW 17:03:07 10° NNE
Starlink BC 3.5 16:55:02 10° WNW 16:57:48 37° N 16:59:14 22° ENE
Starlink BK 3.5 16:55:14 10° WNW 16:58:01 38° N 16:59:26 22° ENE
Starlink AY 3.5 16:55:29 10° WNW 16:58:15 38° N 16:59:40 22° ENE
Starlink AW 3.4 16:55:41 10° WNW 16:58:28 38° N 16:59:52 22° ENE
Starlink BJ 3.5 16:55:55 10° WNW 16:58:42 38° N 17:00:06 22° ENE
Starlink AV 3.4 16:56:10 10° WNW 16:58:57 38° N 17:00:20 23° ENE
YAOGAN 1 2.8 16:54:54 10° SE 16:59:03 48° ENE 17:03:14 10° N
Starlink BD 3.4 16:56:23 10° WNW 16:59:10 38° N 17:00:32 23° ENE
Starlink BE 3.5 16:56:35 10° WNW 16:59:23 38° N 17:00:47 23° ENE
Starlink BM 3.4 16:56:50 10° WNW 16:59:37 38° N 17:00:58 23° ENE
Starlink AX 3.4 16:57:05 10° WNW 16:59:52 38° N 17:01:12 23° ENE
USA 234 3.5 16:53:21 10° SE 16:59:53 72° SW 17:06:26 10° WNW
Starlink BH 3.4 16:57:16 10° WNW 17:00:03 38° N 17:01:23 23° ENE
Cosmos 1603 4.1 16:54:42 10° NNW 17:00:04 40° NE 17:05:21 10° ESE
Starlink AZ 3.4 16:57:31 10° WNW 17:00:17 38° N 17:01:37 23° ENE
Starlink BG 3.4 16:57:41 10° WNW 17:00:27 38° N 17:01:46 24° ENE
Starlink BF 3.4 16:57:57 10° WNW 17:00:43 38° N 17:02:01 24° ENE
Starlink BL 3.4 16:58:06 10° WNW 17:00:55 38° N 17:02:15 24° ENE
Starlink AH 3.4 16:58:23 10° WNW 17:01:10 38° N 17:02:27 24° ENE
Cosmos 2297 Rocket 2.6 16:55:49 10° SW 17:01:25 64° WNW 17:07:05 10° NNE
Starlink AC 3.4 16:58:38 10° WNW 17:01:25 38° N 17:02:42 24° ENE
Starlink AQ 3.4 16:58:43 10° WNW 17:01:31 38° N 17:02:48 24° ENE
Starlink X 3.4 16:58:47 10° WNW 17:01:34 38° N 17:02:51 24° ENE
Starlink AE 3.4 16:59:00 10° WNW 17:01:50 39° N 17:03:08 24° ENE
Starlink Z 3.4 16:59:17 10° WNW 17:02:04 38° NNE 17:03:19 24° ENE
Starlink D 3.6 16:59:04 10° WNW 17:02:09 41° N 17:03:44 23° ENE
Starlink AK 3.4 16:59:32 10° WNW 17:02:19 38° N 17:03:33 25° ENE
Starlink AL 3.4 16:59:46 10° WNW 17:02:34 39° NNE 17:03:47 25° ENE
Starlink AD 3.4 16:59:57 10° WNW 17:02:45 39° N 17:03:58 25° ENE
Starlink Y 3.4 17:00:24 10° WNW 17:03:11 39° NNE 17:04:23 25° ENE
Starlink AG 3.4 17:00:35 10° WNW 17:03:23 39° NNE 17:04:34 25° ENE
Starlink W 3.4 17:00:49 10° WNW 17:03:38 39° NNE 17:04:51 25° ENE
Starlink AJ 3.4 17:01:03 10° WNW 17:03:51 39° NNE 17:05:01 26° ENE
Starlink AM 3.4 17:01:34 10° WNW 17:04:21 39° NNE 17:05:30 26° ENE
Starlink S 3.6 17:01:16 10° WNW 17:04:23 42° NNE 17:05:52 24° ENE
Starlink AP 3.4 17:01:43 10° WNW 17:04:30 39° N 17:05:40 26° ENE
Starlink AA 3.4 17:02:01 10° WNW 17:04:49 39° NNE 17:05:57 26° ENE
Starlink AF 3.4 17:02:10 10° WNW 17:04:57 39° NNE 17:06:05 26° ENE
Starlink AB 3.4 17:02:27 10° WNW 17:05:15 39° NNE 17:06:22 27° ENE
Ariane Rocket 3.8 17:01:05 10° ESE 17:05:20 28° ENE 17:09:37 10° N
Starlink AN 3.4 17:02:37 10° WNW 17:05:24 39° NNE 17:06:31 27° ENE
Starlink C 3.5 17:03:24 10° WNW 17:06:32 42° NNE 17:07:55 26° ENE
Cosmos 2263 Rocket 3.4 17:04:03 10° SSE 17:08:04 21° E 17:09:20 19° E
Starlink E 3.5 17:05:37 10° WNW 17:08:45 43° NNE 17:10:03 27° ENE
YAOGAN 6 3.1 17:06:02 10° S 17:09:39 63° WSW 17:13:17 10° NNW
ADEOS Rocket 4.0 17:03:41 10° NNE 17:09:47 33° E 17:16:19 10° SSE
Meteor 1-27 4.2 17:05:15 10° N 17:10:44 56° ENE 17:16:12 10° SSE
Starlink J 3.5 17:07:50 10° WNW 17:10:58 43° NNE 17:12:11 29° ENE
Meteor 1-11 4.2 17:07:25 10° S 17:12:53 58° E 17:18:21 10° NNE
Starlink V 3.5 17:10:03 10° WNW 17:13:10 44° NNE 17:14:18 30° ENE
Cosmos 2227 Rocket 2.8 17:09:19 10° SW 17:14:52 56° WNW 17:20:28 10° NNE
ERBS 3.8 17:12:08 10° WNW 17:15:01 26° NNW 17:16:39 18° NNE
Starlink H 3.4 17:12:16 10° WNW 17:15:25 45° NNE 17:16:27 32° ENE
NOAA 11 4.1 17:11:00 10° SSE 17:16:26 68° ENE 17:21:54 10° N
CZ-2C R/B 4.4 17:16:33 20° ENE 17:16:57 20° NE 17:21:01 10° N
Starlink F 3.4 17:14:30 10° WNW 17:17:39 46° NNE 17:18:36 34° ENE
Cosmos 614 Rocket 4.3 17:13:04 10° NNW 17:18:02 42° ENE 17:22:54 10° SE
Starlink G 3.4 17:16:44 10° WNW 17:19:53 47° NNE 17:20:45 36° ENE
Starlink L 3.4 17:18:58 10° WNW 17:22:08 47° NNE 17:22:53 38° ENE
Starlink A 3.3 17:21:12 10° WNW 17:24:23 48° NNE 17:25:03 40° NE
Starlink R 3.3 17:23:28 10° WNW 17:26:40 49° NNE 17:27:14 42° NE
Starlink K 3.2 17:25:42 10° WNW 17:28:54 50° NNE 17:29:23 45° NE
Cosmos 1821 Rocket 4.2 17:23:35 10° SSE 17:29:35 47° E 17:35:33 10° NNE
Cosmos 1943 3.3 17:24:15 10° NNW 17:29:46 50° NE 17:33:47 18° SE
Cosmos 1953 Rocket 4.5 17:25:29 10° SSW 17:29:51 51° WNW 17:34:16 10° N
Starlink M 3.2 17:27:56 10° WNW 17:31:07 51° NNE 17:31:31 47° NE
COSMO-SKYMED 1 2.8 17:27:03 10° N 17:31:24 70° WNW 17:35:42 10° SSW
Cosmos 1842 Rocket 3.5 17:28:16 10° N 17:32:46 83° E 17:37:16 10° S
CZ-4 R/B 2.0 17:28:48 10° S 17:32:51 61° W 17:37:01 10° NNW
Starlink AR 3.1 17:34:27 10° WNW 17:36:36 46° NNW 17:36:36 46° NNW
ATLAS CENTAUR R/B 2.8 17:35:30 10° NW 17:39:10 35° WSW 17:42:35 10° S
CSL-04 Debris 4.3 17:36:31 10° S 17:41:54 76° WSW 17:47:21 10° NNW
Cosmos 44 Rocket 3.3 17:37:54 10° SSW 17:42:35 55° ESE 17:43:54 41° ENE
Cosmos 2098 4.4 17:41:09 10° S 17:44:20 70° E 17:45:44 35° NNE
Meteor 2-12 Rocket 4.3 17:38:29 10° S 17:44:31 81° E 17:50:36 10° NNE
Cosmos 1140 Rocket 3.7 17:39:38 10° NNW 17:44:42 46° ENE 17:46:04 37° E
DMSP B5D1-3 4.4 17:43:28 10° NNE 17:48:35 71° ESE 17:53:40 10° S
NOSS 3-3 (A) 4.5 17:42:07 10° NW 17:49:23 64° NE 17:54:02 27° ESE
Shenzhou-11 Module 4.0 17:47:26 10° WSW 17:49:17 19° SSW 17:49:17 19° SSW
NOSS 3-3 (C) 4.5 17:42:13 10° NW 17:49:29 63° NE 17:54:04 27° ESE
SL-8 R/B 3.6 17:44:42 10° W 17:49:32 88° S 17:50:52 48° E
Meteor 2-2 Rocket 4.3 17:43:57 10° N 17:50:02 79° ENE 17:56:01 10° SSE
USA 116 3.4 17:53:20 53° NNW 17:53:50 64° WNW 17:56:54 10° SSW
Cosmos 2123 Rocket 4.1 17:48:27 10° N 17:54:38 52° ENE 18:00:43 10° SSE
H-2A R/B 2.4 17:55:39 40° NE 17:55:39 40° NE 18:00:01 10° N
Cosmos 1000 Rocket 4.4 17:54:16 10° N 18:00:31 88° E 18:06:47 10° S
Cosmos 1934 Rocket 4.0 17:55:19 10° SSE 18:01:06 49° E 18:06:55 10° NNE
CSL-04 Rocket 4.4 17:55:44 10° S 18:01:08 55° W 18:06:37 10° NNW
ATLAS 5 CENTAUR R/B 3.9 17:59:10 10° NNW 18:02:25 17° N 18:03:10 16° NNE
Cosmos 2221 2.9 17:59:37 10° NNW 18:03:52 62° W 18:08:05 10° S
IRS-1A Rocket 4.1 18:00:56 10° SSE 18:06:40 79° ENE 18:12:18 10° NNW
USA 267 3.7 18:03:51 29° NE 18:07:05 55° NNW 18:13:25 10° W
Cosmos 2239 Rocket 4.4 18:01:10 10° S 18:07:28 77° E 18:13:48 10° NNE
MOS 1 4.2 18:05:01 28° SE 18:08:05 66° ENE 18:13:44 10° N
Cosmos 1954 Rocket 4.2 18:03:44 10° NNW 18:08:32 50° NE 18:08:32 50° NE
Cosmos 1076 Rocket 4.0 18:07:33 10° S 18:10:41 47° S 18:10:41 47° S
ISS -1.9 18:17:20 10° WNW 18:19:21 30° WNW 18:19:21 30° WNW
Cosmos 407 Rocket 3.7 18:16:41 10° NNW 18:21:57 70° WSW 18:24:47 27° S
Cosmos 1371 Rocket 3.9 18:17:17 10° SSW 18:22:05 71° SSE 18:22:05 71° SSE
Cosmos 1190 Rocket 4.1 18:17:29 10° NNW 18:22:49 79° WSW 18:24:43 41° S
Cosmos 1869 4.0 18:18:52 10° NNW 18:22:05 50° NW 18:22:05 50° NW
CENTAUR R/B 4.2 18:17:49 10° S 18:19:01 16° SSE 18:19:01 16° SSE
Cosmos 1535 Rocket 4.4 18:16:51 10° S 18:23:08 72° E 18:29:31 10° NNE
In-Cosmos 22 Rocket 4.1 18:21:06 10° S 18:26:19 70° SE 18:26:19 70° SE
NOSS 3-2 (A) 3.5 18:23:17 10° SSW 18:28:18 56° SSE 18:28:18 56° SSE
Cosmos 676 Rocket 4.1 18:29:54 10° NNW 18:34:34 67° N 18:34:34 67° N
BREEZE-M DEB (TANK) 4.4 18:05:27 10° WNW 18:37:03 81° SSW 18:39:34 50° SE
Cosmos 2227 4.4 18:32:02 10° SW 18:37:45 71° WNW 18:39:03 52° N
Ariane Rocket 3.9 18:39:12 10° S 18:44:04 47° W 18:49:00 10° NNW
ARGOS 3.5 18:46:23 55° NNW 18:46:23 55° NNW 18:50:35 10° NNW
Cosmos 2263 Rocket 2.3 18:45:52 10° SW 18:51:05 68° W 18:51:05 68° W
ADEOS Rocket 3.8 18:48:56 10° N 18:55:31 59° WNW 19:02:44 10° SW
CZ-2C R/B 3.8 18:57:36 51° NNW 18:57:36 51° NNW 19:01:52 10° NNW
USA 238 DEB 3.7 19:02:51 10° SW 19:08:59 74° W 19:08:59 74° W
USA 238 3.7 19:02:58 10° SW 19:09:03 73° WSW 19:09:03 73° WSW
H-2A R/B 4.0 19:36:15 25° WNW 19:36:15 25° WNW 19:39:15 10° NNW
USA 267 4.4 19:51:11 36° NW 19:51:11 36° NW 19:55:33 10° WNW
